Time,TemperatureF,DewpointF,PressureIn,WindDirection,WindDirectionDegrees,WindSpeedMPH,WindSpeedGustMPH,Humidity,HourlyPrecipIn,Conditions,Clouds,dailyrainin,SoftwareType,DateUTC
2013-01-02 00:00:00,49.6,48.8,29.95,WNW,288,0.0,0.0,97,0.02,,,0.21,WeatherDisplay:10.37,2013-01-02 05:00:00,
2013-01-02 00:05:00,49.6,48.8,29.95,WNW,288,0.0,0.0,97,0.02,RA,,0.00,WeatherDisplay:10.37,2013-01-02 05:05:00,
2013-01-02 00:10:00,49.5,48.7,29.94,WNW,288,0.0,0.0,97,0.02,RA,,0.00,WeatherDisplay:10.37,2013-01-02 05:10:00,
2013-01-02 00:15:00,49.5,48.7,29.94,WNW,288,0.0,0.0,97,0.02,CLR,,0.00,WeatherDisplay:10.37,2013-01-02 05:15:00,
2013-01-02 00:20:00,49.5,48.7,29.93,WNW,288,0.0,0.0,97,0.02,CLR,,0.00,WeatherDisplay:10.37,2013-01-02 05:20:00,
2013-01-02 00:25:00,49.5,48.7,29.93,WNW,288,0.0,0.0,97,0.02,CLR,,0.00,WeatherDisplay:10.37,2013-01-02 05:25:00,
2013-01-02 00:30:00,49.5,48.7,29.92,WNW,288,0.0,0.0,97,0.03,RA,,0.01,WeatherDisplay:10.37,2013-01-02 05:30:00,
2013-01-02 00:35:00,49.5,48.7,29.92,WNW,288,0.0,0.0,97,0.02,RA,,0.01,WeatherDisplay:10.37,2013-01-02 05:35:00,
2013-01-02 00:40:00,49.4,48.6,29.93,WNW,288,1.1,1.1,97,0.02,CLR,,0.01,WeatherDisplay:10.37,2013-01-02 05:40:00,
2013-01-02 00:45:00,49.3,48.5,29.93,WNW,288,0.0,0.0,97,0.02,CLR,,0.01,WeatherDisplay:10.37,2013-01-02 05:45:00,
2013-01-02 00:50:00,49.3,48.5,29.92,WNW,288,0.0,0.0,97,0.02,RA,,0.02,WeatherDisplay:10.37,2013-01-02 05:50:00,
2013-01-02 00:55:00,49.3,48.5,29.92,WNW,300,0.0,0.0,97,0.02,RA,,0.02,WeatherDisplay:10.37,2013-01-02 05:55:00,
2013-01-02 01:00:00,49.3,48.5,29.92,WNW,300,0.0,0.0,97,0.02,CLR,,0.02,WeatherDisplay:10.37,2013-01-02 06:00:00,
2013-01-02 01:05:00,49.3,48.5,29.92,WNW,300,0.0,0.0,97,0.03,RA,,0.03,WeatherDisplay:10.37,2013-01-02 06:05:00,
2013-01-02 01:10:00,49.3,48.5,29.92,WNW,300,0.0,0.0,97,0.03,RA,,0.03,WeatherDisplay:10.37,2013-01-02 06:10:00,
2013-01-02 01:15:00,49.3,48.5,29.92,WNW,299,0.0,0.0,97,0.04,RA,,0.04,WeatherDisplay:10.37,2013-01-02 06:15:00,
2013-01-02 01:20:00,49.3,48.5,29.92,WNW,299,0.0,0.0,97,0.04,RA,,0.04,WeatherDisplay:10.37,2013-01-02 06:20:00,
2013-01-02 01:24:00,49.3,48.5,29.91,WNW,300,0.0,0.0,97,0.05,RA,,0.05,WeatherDisplay:10.37,2013-01-02 06:24:00,
2013-01-02 01:29:00,49.3,48.5,29.90,WNW,299,0.0,0.0,97,0.04,RA,,0.05,WeatherDisplay:10.37,2013-01-02 06:29:00,
2013-01-02 01:34:00,49.2,48.4,29.90,WNW,301,0.0,0.0,97,0.05,RA,,0.06,WeatherDisplay:10.37,2013-01-02 06:34:00,
2013-01-02 01:39:00,49.2,48.4,29.90,North,1,0.0,0.0,97,0.05,RA,,0.06,WeatherDisplay:10.37,2013-01-02 06:39:00,
2013-01-02 01:44:00,49.2,48.4,29.91,North,11,1.1,0.0,97,0.05,,,0.06,WeatherDisplay:10.37,2013-01-02 06:44:00,
2013-01-02 01:49:00,49.2,48.4,29.92,NNW,335,1.1,0.0,97,0.04,CLR,,0.06,WeatherDisplay:10.37,2013-01-02 06:49:00,
2013-01-02 01:54:00,49.1,48.3,29.92,NE,54,2.3,2.3,97,0.04,CLR,,0.06,WeatherDisplay:10.37,2013-01-02 06:54:00,
2013-01-02 01:59:00,49.1,48.3,29.92,NE,40,0.0,0.1,97,0.04,CLR,,0.06,WeatherDisplay:10.37,2013-01-02 06:59:00,
2013-01-02 02:04:00,49.0,48.2,29.91,NE,41,1.1,0.0,97,0.04,RA,,0.07,WeatherDisplay:10.37,2013-01-02 07:04:00,
2013-01-02 02:09:00,48.9,48.1,29.92,NNE,22,2.3,2.3,97,0.05,RA,,0.08,WeatherDisplay:10.37,2013-01-02 07:09:00,
2013-01-02 02:14:00,48.7,47.9,29.92,NE,40,1.1,0.0,97,0.04,RA,,0.08,WeatherDisplay:10.37,2013-01-02 07:14:00,
2013-01-02 02:19:00,48.5,47.7,29.92,North,360,1.1,1.1,97,0.05,RA,,0.09,WeatherDisplay:10.37,2013-01-02 07:19:00,
2013-01-02 02:24:00,48.4,47.6,29.92,NNE,30,1.1,0.0,97,0.04,RA,,0.09,WeatherDisplay:10.37,2013-01-02 07:24:00,
2013-01-02 02:29:00,48.3,47.5,29.93,North,352,1.1,0.0,97,0.04,,,0.09,WeatherDisplay:10.37,2013-01-02 07:29:00,
2013-01-02 02:34:00,48.2,47.4,29.94,NW,318,0.0,0.0,97,0.04,RA,,0.10,WeatherDisplay:10.37,2013-01-02 07:34:00,
2013-01-02 02:39:00,48.1,47.3,29.92,NE,50,0.0,0.0,97,0.04,RA,,0.10,WeatherDisplay:10.37,2013-01-02 07:39:00,
2013-01-02 02:44:00,47.9,47.1,29.93,East,82,1.1,1.1,97,0.05,RA,,0.11,WeatherDisplay:10.37,2013-01-02 07:44:00,
2013-01-02 02:49:00,47.8,47.0,29.94,WNW,297,1.1,0.0,97,0.05,RA,,0.11,WeatherDisplay:10.37,2013-01-02 07:49:00,
2013-01-02 02:54:00,47.7,46.9,29.95,NNW,339,2.3,2.3,97,0.06,RA,,0.12,WeatherDisplay:10.37,2013-01-02 07:54:00,
2013-01-02 02:59:00,47.5,46.7,29.92,ENE,67,2.3,2.3,97,0.07,RA,,0.13,WeatherDisplay:10.37,2013-01-02 07:59:00,
2013-01-02 03:04:00,47.4,46.6,29.92,NNW,335,3.5,3.5,97,0.06,RA,,0.13,WeatherDisplay:10.37,2013-01-02 08:04:00,
2013-01-02 03:09:00,47.3,46.5,29.92,North,11,1.1,1.1,97,0.06,RA,,0.14,WeatherDisplay:10.37,2013-01-02 08:09:00,
2013-01-02 03:14:00,47.2,46.4,29.93,North,358,2.3,2.3,97,0.06,RA,,0.14,WeatherDisplay:10.37,2013-01-02 08:14:00,
2013-01-02 03:19:00,47.2,46.4,29.93,North,4,0.0,0.0,97,0.06,RA,,0.15,WeatherDisplay:10.37,2013-01-02 08:19:00,
2013-01-02 03:24:00,47.1,46.3,29.93,NNE,30,1.1,0.0,97,0.06,RA,,0.15,WeatherDisplay:10.37,2013-01-02 08:24:00,
2013-01-02 03:29:00,47.0,46.2,29.93,ENE,77,0.0,0.0,97,0.06,,,0.15,WeatherDisplay:10.37,2013-01-02 08:29:00,
2013-01-02 03:34:00,47.0,46.2,29.92,ENE,68,2.3,2.3,97,0.05,CLR,,0.15,WeatherDisplay:10.37,2013-01-02 08:34:00,
2013-01-02 03:39:00,46.9,46.1,29.92,ENE,70,3.5,3.5,97,0.05,CLR,,0.15,WeatherDisplay:10.37,2013-01-02 08:39:00,
2013-01-02 03:44:00,46.8,46.0,29.94,NE,37,1.1,0.0,97,0.05,RA,,0.16,WeatherDisplay:10.37,2013-01-02 08:44:00,
2013-01-02 03:49:00,46.7,45.9,29.95,North,357,3.5,3.5,97,0.06,RA,,0.17,WeatherDisplay:10.37,2013-01-02 08:49:00,
2013-01-02 03:54:00,46.7,45.9,29.95,NNE,28,1.1,1.1,97,0.05,RA,,0.18,WeatherDisplay:10.37,2013-01-02 08:54:00,
2013-01-02 03:59:00,46.6,45.8,29.94,NNE,29,2.3,2.3,97,0.05,RA,,0.18,WeatherDisplay:10.37,2013-01-02 08:59:00,
2013-01-02 04:04:00,46.4,45.6,29.93,NE,54,3.5,3.5,97,0.06,RA,,0.19,WeatherDisplay:10.37,2013-01-02 09:04:00,
2013-01-02 04:09:00,46.1,45.0,29.93,NNW,348,4.6,4.6,96,0.05,RA,,0.19,WeatherDisplay:10.37,2013-01-02 09:09:00,
2013-01-02 04:14:00,46.0,44.9,29.94,NNE,26,1.0,1.0,96,0.05,CLR,,0.19,WeatherDisplay:10.37,2013-01-02 09:14:00,
2013-01-02 04:19:00,45.9,44.8,29.93,NNE,20,3.5,3.5,96,0.04,CLR,,0.19,WeatherDisplay:10.37,2013-01-02 09:19:00,
2013-01-02 04:24:00,45.9,45.1,29.93,ENE,70,2.3,2.3,97,0.04,CLR,,0.19,WeatherDisplay:10.37,2013-01-02 09:24:00,
2013-01-02 04:29:00,45.8,45.0,29.93,NNW,345,1.1,1.1,97,0.04,CLR,,0.19,WeatherDisplay:10.37,2013-01-02 09:29:00,
2013-01-02 04:34:00,45.7,44.9,29.93,NE,40,1.1,1.1,97,0.04,CLR,,0.19,WeatherDisplay:10.37,2013-01-02 09:34:00,
2013-01-02 04:39:00,45.7,44.9,29.93,NE,36,2.3,2.3,97,0.04,CLR,,0.19,WeatherDisplay:10.37,2013-01-02 09:39:00,
2013-01-02 04:44:00,45.6,44.8,29.93,ESE,118,3.5,3.5,97,0.04,RA,,0.20,WeatherDisplay:10.37,2013-01-02 09:44:00,
2013-01-02 04:49:00,45.5,44.4,29.94,ENE,65,4.6,4.6,96,0.03,RA,,0.20,WeatherDisplay:10.37,2013-01-02 09:49:00,
2013-01-02 04:54:00,45.4,44.3,29.94,NNE,19,0.0,0.0,96,0.03,CLR,,0.20,WeatherDisplay:10.37,2013-01-02 09:54:00,
2013-01-02 04:59:00,45.3,44.2,29.95,North,5,3.5,3.5,96,0.02,CLR,,0.20,WeatherDisplay:10.37,2013-01-02 09:59:00,
2013-01-02 05:04:00,45.2,44.1,29.95,NNW,328,3.5,3.5,96,0.01,CLR,,0.20,WeatherDisplay:10.37,2013-01-02 10:04:00,
2013-01-02 05:09:00,45.1,44.0,29.95,ENE,67,3.5,3.5,96,0.01,CLR,,0.20,WeatherDisplay:10.37,2013-01-02 10:09:00,
2013-01-02 05:14:00,45.0,43.9,29.95,East,89,3.5,3.5,96,0.01,CLR,,0.20,WeatherDisplay:10.37,2013-01-02 10:14:00,
2013-01-02 05:19:00,44.9,43.8,29.96,NNE,31,2.3,2.3,96,0.02,RA,,0.21,WeatherDisplay:10.37,2013-01-02 10:19:00,
2013-01-02 05:24:00,44.7,43.6,29.95,NE,36,2.3,2.3,96,0.02,RA,,0.21,WeatherDisplay:10.37,2013-01-02 10:24:00,
2013-01-02 05:29:00,44.5,43.4,29.95,NNW,329,3.5,3.5,96,0.02,CLR,,0.21,WeatherDisplay:10.37,2013-01-02 10:29:00,
2013-01-02 05:34:00,44.4,43.3,29.96,North,8,3.5,3.5,96,0.02,CLR,,0.21,WeatherDisplay:10.37,2013-01-02 10:34:00,
2013-01-02 05:39:00,44.3,43.2,29.96,NE,56,3.5,3.5,96,0.02,CLR,,0.21,WeatherDisplay:10.37,2013-01-02 10:39:00,
2013-01-02 05:44:00,44.2,43.1,29.96,NNW,333,3.5,3.5,96,0.02,RA,,0.22,WeatherDisplay:10.37,2013-01-02 10:44:00,
2013-01-02 05:49:00,44.1,43.0,29.96,NNE,18,2.0,2.0,96,0.02,RA,,0.22,WeatherDisplay:10.37,2013-01-02 10:49:00,
2013-01-02 05:54:00,44.1,43.0,29.97,NNE,20,1.1,0.0,96,0.02,,,0.22,WeatherDisplay:10.37,2013-01-02 10:54:00,
2013-01-02 05:59:00,44.0,42.9,29.97,NE,43,1.1,1.1,96,0.02,CLR,,0.22,WeatherDisplay:10.37,2013-01-02 10:59:00,
2013-01-02 06:04:00,44.0,42.9,29.98,NE,34,0.0,0.0,96,0.02,CLR,,0.23,WeatherDisplay:10.37,2013-01-02 11:04:00,
2013-01-02 06:09:00,44.0,42.9,29.99,NNE,31,1.1,0.0,96,0.03,RA,,0.23,WeatherDisplay:10.37,2013-01-02 11:09:00,
2013-01-02 06:14:00,44.0,42.9,29.98,North,6,2.3,2.3,96,0.03,RA,,0.23,WeatherDisplay:10.37,2013-01-02 11:14:00,
2013-01-02 06:19:00,44.0,43.2,29.99,North,9,2.3,2.3,97,0.02,CLR,,0.23,WeatherDisplay:10.37,2013-01-02 11:19:00,
2013-01-02 06:24:00,44.0,43.2,29.98,ENE,61,1.1,0.0,97,0.02,CLR,,0.23,WeatherDisplay:10.37,2013-01-02 11:24:00,
2013-01-02 06:29:00,44.0,43.2,29.98,North,349,2.3,2.3,97,0.02,CLR,,0.23,WeatherDisplay:10.37,2013-01-02 11:29:00,
2013-01-02 06:34:00,43.9,43.1,29.98,North,11,3.5,3.5,97,0.02,CLR,,0.23,WeatherDisplay:10.37,2013-01-02 11:34:00,
2013-01-02 06:40:00,43.9,42.8,29.99,North,8,2.3,2.3,96,0.03,RA,,0.24,WeatherDisplay:10.37,2013-01-02 11:40:00,
2013-01-02 06:45:00,43.8,42.7,29.99,NNE,32,1.1,0.0,96,0.02,RA,,0.24,WeatherDisplay:10.37,2013-01-02 11:45:00,
2013-01-02 06:50:00,43.8,43.0,29.99,NW,326,2.0,2.0,97,0.02,,,0.24,WeatherDisplay:10.37,2013-01-02 11:50:00,
2013-01-02 06:55:00,43.8,42.7,30.00,NNE,30,2.3,2.3,96,0.02,CLR,,0.24,WeatherDisplay:10.37,2013-01-02 11:55:00,
2013-01-02 07:00:00,43.8,42.7,30.00,NNW,343,2.3,2.3,96,0.02,CLR,,0.24,WeatherDisplay:10.37,2013-01-02 12:00:00,
2013-01-02 07:05:00,43.7,42.6,30.00,North,352,3.5,3.5,96,0.02,CLR,,0.24,WeatherDisplay:10.37,2013-01-02 12:05:00,
2013-01-02 07:10:00,43.7,42.6,30.00,NNE,29,1.0,1.0,96,0.01,CLR,,0.24,WeatherDisplay:10.37,2013-01-02 12:10:00,
2013-01-02 07:15:00,43.7,42.6,30.00,North,354,1.1,1.1,96,0.01,CLR,,0.24,WeatherDisplay:10.37,2013-01-02 12:15:00,
2013-01-02 07:20:00,43.6,42.5,30.00,NE,34,0.0,0.0,96,0.01,CLR,,0.24,WeatherDisplay:10.37,2013-01-02 12:20:00,
2013-01-02 07:25:00,43.6,42.5,30.00,North,358,0.0,0.0,96,0.01,CLR,,0.24,WeatherDisplay:10.37,2013-01-02 12:25:00,
2013-01-02 07:30:00,43.6,42.8,30.01,North,359,0.0,0.0,97,0.01,CLR,,0.24,WeatherDisplay:10.37,2013-01-02 12:30:00,
2013-01-02 07:35:00,43.6,42.8,30.00,North,358,0.0,0.0,97,0.01,CLR,,0.24,WeatherDisplay:10.37,2013-01-02 12:35:00,
2013-01-02 07:40:00,43.6,42.8,30.00,North,358,0.0,0.0,97,0.00,CLR,,0.24,WeatherDisplay:10.37,2013-01-02 12:40:00,
2013-01-02 07:45:00,43.7,42.9,30.00,East,100,0.0,0.0,97,0.00,CLR,,0.24,WeatherDisplay:10.37,2013-01-02 12:45:00,
2013-01-02 07:50:00,43.7,42.9,30.00,SSE,150,0.0,0.0,97,0.00,CLR,,0.24,WeatherDisplay:10.37,2013-01-02 12:50:00,
2013-01-02 07:55:00,43.8,43.0,30.00,SSE,150,0.0,0.0,97,0.00,CLR,,0.24,WeatherDisplay:10.37,2013-01-02 12:55:00,
2013-01-02 08:00:00,43.8,43.0,30.00,SSE,150,0.0,0.0,97,0.00,CLR,,0.24,WeatherDisplay:10.37,2013-01-02 13:00:00,
2013-01-02 08:05:00,43.8,43.0,30.00,SSE,149,0.0,0.0,97,0.00,CLR,,0.24,WeatherDisplay:10.37,2013-01-02 13:05:00,
2013-01-02 08:10:00,43.8,43.0,30.00,East,90,0.0,0.0,97,0.00,CLR,,0.24,WeatherDisplay:10.37,2013-01-02 13:10:00,
2013-01-02 08:15:00,43.8,43.0,30.00,East,92,1.1,0.0,97,0.00,CLR,,0.24,WeatherDisplay:10.37,2013-01-02 13:15:00,
2013-01-02 08:20:00,43.8,43.0,30.00,East,90,0.0,0.0,97,0.00,CLR,,0.24,WeatherDisplay:10.37,2013-01-02 13:20:00,
2013-01-02 08:25:00,43.9,43.1,30.00,East,90,0.0,0.0,97,0.00,CLR,,0.24,WeatherDisplay:10.37,2013-01-02 13:25:00,
2013-01-02 08:30:00,43.9,43.1,30.01,East,90,0.0,0.0,97,0.00,CLR,,0.24,WeatherDisplay:10.37,2013-01-02 13:30:00,
2013-01-02 08:35:00,44.0,43.2,30.02,NNE,33,0.0,0.0,97,0.00,CLR,,0.24,WeatherDisplay:10.37,2013-01-02 13:35:00,
2013-01-02 08:40:00,44.1,43.3,30.03,NNE,19,0.0,0.0,97,0.00,CLR,,0.24,WeatherDisplay:10.37,2013-01-02 13:40:00,
2013-01-02 08:45:00,44.1,43.3,30.02,NNE,18,2.3,2.3,97,0.00,CLR,,0.24,WeatherDisplay:10.37,2013-01-02 13:45:00,
2013-01-02 08:50:00,44.1,43.3,30.03,North,357,1.1,1.1,97,0.00,CLR,,0.24,WeatherDisplay:10.37,2013-01-02 13:50:00,
2013-01-02 08:55:00,44.0,43.2,30.03,NNE,12,3.5,3.5,97,0.00,CLR,,0.24,WeatherDisplay:10.37,2013-01-02 13:55:00,
2013-01-02 09:00:00,44.0,43.2,30.03,North,350,1.1,1.1,97,0.00,CLR,,0.24,WeatherDisplay:10.37,2013-01-02 14:00:00,
2013-01-02 09:05:00,44.1,43.3,30.04,North,8,3.5,3.5,97,0.00,CLR,,0.24,WeatherDisplay:10.37,2013-01-02 14:05:00,
2013-01-02 09:10:00,44.0,42.9,30.05,NW,312,2.0,2.0,96,0.00,CLR,,0.24,WeatherDisplay:10.37,2013-01-02 14:10:00,
2013-01-02 09:15:00,44.0,42.9,30.05,NE,53,6.0,6.0,96,0.00,CLR,,0.24,WeatherDisplay:10.37,2013-01-02 14:15:00,
2013-01-02 09:20:00,43.9,42.8,30.05,WNW,283,3.5,3.5,96,0.00,CLR,,0.24,WeatherDisplay:10.37,2013-01-02 14:20:00,
2013-01-02 09:25:00,43.9,42.8,30.05,NNE,29,3.5,3.5,96,0.00,CLR,,0.24,WeatherDisplay:10.37,2013-01-02 14:25:00,
2013-01-02 09:30:00,43.9,42.8,30.05,NNE,32,2.0,2.0,96,0.00,CLR,,0.24,WeatherDisplay:10.37,2013-01-02 14:30:00,
2013-01-02 09:35:00,44.0,42.9,30.06,NE,37,3.5,3.5,96,0.00,CLR,,0.24,WeatherDisplay:10.37,2013-01-02 14:35:00,
2013-01-02 09:40:00,44.0,42.9,30.06,NNE,19,3.0,3.0,96,0.00,CLR,,0.24,WeatherDisplay:10.37,2013-01-02 14:40:00,
2013-01-02 09:45:00,44.0,42.9,30.06,NNE,18,3.5,3.5,96,0.00,CLR,,0.24,WeatherDisplay:10.37,2013-01-02 14:45:00,
2013-01-02 09:50:00,44.1,43.0,30.06,NNE,13,3.5,3.5,96,0.00,CLR,,0.24,WeatherDisplay:10.37,2013-01-02 14:50:00,
2013-01-02 09:55:00,44.1,43.0,30.07,NNE,12,3.5,3.5,96,0.00,CLR,,0.24,WeatherDisplay:10.37,2013-01-02 14:55:00,
2013-01-02 10:00:00,44.1,43.0,30.06,NE,43,5.8,5.8,96,0.00,CLR,,0.24,WeatherDisplay:10.37,2013-01-02 15:00:00,
2013-01-02 10:05:00,44.0,42.9,30.06,NNE,32,3.5,3.5,96,0.00,CLR,,0.24,WeatherDisplay:10.37,2013-01-02 15:05:00,
2013-01-02 10:10:00,44.0,42.7,30.07,NE,48,4.6,4.6,95,0.00,CLR,,0.24,WeatherDisplay:10.37,2013-01-02 15:10:00,
2013-01-02 10:15:00,44.1,42.8,30.07,NE,36,2.3,2.3,95,0.00,CLR,,0.24,WeatherDisplay:10.37,2013-01-02 15:15:00,
2013-01-02 10:20:00,44.0,42.7,30.07,North,1,5.8,5.8,95,0.00,CLR,,0.24,WeatherDisplay:10.37,2013-01-02 15:20:00,
2013-01-02 10:25:00,44.0,42.7,30.07,North,8,3.5,3.5,95,0.00,CLR,,0.24,WeatherDisplay:10.37,2013-01-02 15:25:00,
2013-01-02 10:30:00,44.1,42.5,30.08,NE,39,3.5,3.5,94,0.00,CLR,,0.24,WeatherDisplay:10.37,2013-01-02 15:30:00,
2013-01-02 10:35:00,44.0,42.4,30.08,NNW,331,3.5,3.5,94,0.00,CLR,,0.24,WeatherDisplay:10.37,2013-01-02 15:35:00,
2013-01-02 10:40:00,44.1,42.5,30.08,NNW,340,4.0,4.0,94,0.00,CLR,,0.24,WeatherDisplay:10.37,2013-01-02 15:40:00,
2013-01-02 10:45:00,44.1,42.5,30.09,NW,325,1.1,1.1,94,0.00,CLR,,0.24,WeatherDisplay:10.37,2013-01-02 15:45:00,
2013-01-02 10:50:00,44.2,42.3,30.08,NE,44,5.0,5.0,93,0.00,CLR,,0.24,WeatherDisplay:10.37,2013-01-02 15:50:00,
2013-01-02 10:55:00,44.3,42.4,30.08,NE,54,4.6,4.6,93,0.00,CLR,,0.24,WeatherDisplay:10.37,2013-01-02 15:55:00,
2013-01-02 11:00:00,44.5,42.3,30.08,NNE,25,2.0,2.2,92,0.00,CLR,,0.24,WeatherDisplay:10.37,2013-01-02 16:00:00,
2013-01-02 11:05:00,44.4,41.9,30.07,NE,39,3.5,3.5,91,0.00,CLR,,0.24,WeatherDisplay:10.37,2013-01-02 16:05:00,
2013-01-02 11:10:00,44.6,42.4,30.08,North,358,3.0,3.0,92,0.00,CLR,,0.24,WeatherDisplay:10.37,2013-01-02 16:10:00,
2013-01-02 11:15:00,44.5,41.7,30.08,North,353,3.5,3.5,90,0.00,CLR,,0.24,WeatherDisplay:10.37,2013-01-02 16:15:00,
2013-01-02 11:20:00,44.3,41.6,30.07,NNE,23,4.6,4.6,90,0.00,CLR,,0.24,WeatherDisplay:10.37,2013-01-02 16:20:00,
2013-01-02 11:25:00,44.2,41.5,30.07,NNE,26,3.5,3.5,90,0.00,CLR,,0.24,WeatherDisplay:10.37,2013-01-02 16:25:00,
2013-01-02 11:30:00,44.0,41.3,30.07,SW,229,3.5,3.5,90,0.00,CLR,,0.24,WeatherDisplay:10.37,2013-01-02 16:30:00,
2013-01-02 11:35:00,43.9,41.2,30.07,NNE,16,1.1,1.1,90,0.00,CLR,,0.24,WeatherDisplay:10.37,2013-01-02 16:35:00,
2013-01-02 11:40:00,43.9,41.4,30.08,West,275,2.3,2.3,91,0.00,CLR,,0.24,WeatherDisplay:10.37,2013-01-02 16:40:00,
2013-01-02 11:45:00,43.8,41.1,30.08,NW,322,3.5,3.5,90,0.00,CLR,,0.24,WeatherDisplay:10.37,2013-01-02 16:45:00,
2013-01-02 11:50:00,43.4,40.7,30.07,NE,47,6.9,6.9,90,0.00,CLR,,0.24,WeatherDisplay:10.37,2013-01-02 16:50:00,
2013-01-02 11:55:00,43.2,40.8,30.07,North,357,2.3,2.3,91,0.00,CLR,,0.24,WeatherDisplay:10.37,2013-01-02 16:55:00,
2013-01-02 12:00:00,43.1,40.7,30.06,East,89,3.5,3.9,91,0.00,CLR,,0.24,WeatherDisplay:10.37,2013-01-02 17:00:00,
2013-01-02 12:05:00,43.0,40.6,30.06,NE,43,0.0,0.0,91,0.00,CLR,,0.24,WeatherDisplay:10.37,2013-01-02 17:05:00,
2013-01-02 12:10:00,43.0,40.3,30.07,NNE,32,3.5,3.5,90,0.00,CLR,,0.24,WeatherDisplay:10.37,2013-01-02 17:10:00,
2013-01-02 12:15:00,42.7,40.3,30.07,NNE,30,1.1,2.0,91,0.00,CLR,,0.24,WeatherDisplay:10.37,2013-01-02 17:15:00,
2013-01-02 12:20:00,42.7,40.3,30.07,NE,40,0.0,1.1,91,0.00,CLR,,0.24,WeatherDisplay:10.37,2013-01-02 17:20:00,
2013-01-02 12:25:00,42.6,39.9,30.07,East,79,4.6,4.6,90,0.00,CLR,,0.24,WeatherDisplay:10.37,2013-01-02 17:25:00,
2013-01-02 12:30:00,42.4,40.0,30.07,NW,321,3.5,3.5,91,0.00,CLR,,0.24,WeatherDisplay:10.37,2013-01-02 17:30:00,
2013-01-02 12:35:00,42.6,40.2,30.06,NNE,17,3.0,3.0,91,0.00,CLR,,0.24,WeatherDisplay:10.37,2013-01-02 17:35:00,
2013-01-02 12:41:00,42.7,40.0,30.07,ENE,65,2.3,2.3,90,0.00,CLR,,0.24,WeatherDisplay:10.37,2013-01-02 17:41:00,
2013-01-02 12:46:00,42.8,40.1,30.05,NE,53,3.5,3.5,90,0.00,CLR,,0.24,WeatherDisplay:10.37,2013-01-02 17:46:00,
2013-01-02 12:51:00,43.0,40.0,30.05,North,357,2.3,2.7,89,0.00,CLR,,0.24,WeatherDisplay:10.37,2013-01-02 17:51:00,
2013-01-02 12:56:00,43.0,39.7,30.05,North,351,3.5,3.5,88,0.00,CLR,,0.24,WeatherDisplay:10.37,2013-01-02 17:56:00,
2013-01-02 13:01:00,43.1,39.8,30.04,NE,54,6.0,6.0,88,0.00,CLR,,0.24,WeatherDisplay:10.37,2013-01-02 18:01:00,
2013-01-02 13:06:00,43.1,39.8,30.03,ENE,58,3.5,3.5,88,0.00,CLR,,0.24,WeatherDisplay:10.37,2013-01-02 18:06:00,
2013-01-02 13:11:00,42.9,39.6,30.04,NE,41,2.3,2.3,88,0.00,CLR,,0.24,WeatherDisplay:10.37,2013-01-02 18:11:00,
2013-01-02 13:16:00,42.9,39.9,30.05,NNE,12,4.0,4.0,89,0.00,CLR,,0.24,WeatherDisplay:10.37,2013-01-02 18:16:00,
2013-01-02 13:21:00,43.1,39.5,30.04,NNE,20,3.0,3.0,87,0.00,CLR,,0.24,WeatherDisplay:10.37,2013-01-02 18:21:00,
2013-01-02 13:24:00,43.1,39.5,30.04,NE,34,2.3,2.3,87,0.00,CLR,,0.24,WeatherDisplay:10.37,2013-01-02 18:24:00,
2013-01-02 13:29:00,43.4,39.8,30.05,NNE,26,2.3,2.3,87,0.00,CLR,,0.24,WeatherDisplay:10.37,2013-01-02 18:29:00,
2013-01-02 13:34:00,43.8,39.6,30.05,ENE,57,4.0,4.0,85,0.00,CLR,,0.24,WeatherDisplay:10.37,2013-01-02 18:34:00,
2013-01-02 13:39:00,44.9,40.7,30.05,East,79,2.3,2.3,85,0.00,CLR,,0.24,WeatherDisplay:10.37,2013-01-02 18:39:00,
2013-01-02 13:44:00,45.7,40.5,30.05,WNW,295,1.1,1.1,82,0.00,CLR,,0.24,WeatherDisplay:10.37,2013-01-02 18:44:00,
2013-01-02 13:49:00,46.1,40.6,30.05,East,82,1.1,0.0,81,0.00,CLR,,0.24,WeatherDisplay:10.37,2013-01-02 18:49:00,
2013-01-02 13:54:00,45.9,40.1,30.05,NE,41,1.1,1.1,80,0.00,CLR,,0.24,WeatherDisplay:10.37,2013-01-02 18:54:00,
2013-01-02 13:59:00,45.7,39.9,30.06,East,90,1.1,1.1,80,0.00,CLR,,0.24,WeatherDisplay:10.37,2013-01-02 18:59:00,
2013-01-02 14:04:00,45.2,39.7,30.06,NE,53,2.3,2.3,81,0.00,CLR,,0.24,WeatherDisplay:10.37,2013-01-02 19:04:00,
2013-01-02 14:09:00,44.6,39.8,30.05,NE,51,2.3,2.3,83,0.00,CLR,,0.24,WeatherDisplay:10.37,2013-01-02 19:09:00,
2013-01-02 14:14:00,44.7,39.9,30.05,East,94,3.5,3.5,83,0.00,CLR,,0.24,WeatherDisplay:10.37,2013-01-02 19:14:00,
2013-01-02 14:19:00,44.6,39.8,30.05,East,95,0.0,0.0,83,0.00,CLR,,0.24,WeatherDisplay:10.37,2013-01-02 19:19:00,
2013-01-02 14:24:00,44.6,39.4,30.06,NE,54,3.0,3.0,82,0.00,CLR,,0.24,WeatherDisplay:10.37,2013-01-02 19:24:00,
2013-01-02 14:29:00,44.4,38.9,30.06,NNE,26,3.5,3.5,81,0.00,CLR,,0.24,WeatherDisplay:10.37,2013-01-02 19:29:00,
2013-01-02 14:34:00,44.4,39.2,30.05,North,352,3.5,3.5,82,0.00,CLR,,0.24,WeatherDisplay:10.37,2013-01-02 19:34:00,
2013-01-02 14:39:00,44.2,39.4,30.05,NNE,33,2.3,2.3,83,0.00,CLR,,0.24,WeatherDisplay:10.37,2013-01-02 19:39:00,
2013-01-02 14:44:00,44.3,39.5,30.06,NE,34,3.5,3.5,83,0.00,CLR,,0.24,WeatherDisplay:10.37,2013-01-02 19:44:00,
2013-01-02 14:49:00,44.2,39.7,30.06,NE,53,3.5,3.5,84,0.00,CLR,,0.24,WeatherDisplay:10.37,2013-01-02 19:49:00,
2013-01-02 14:54:00,43.9,38.8,30.06,East,97,3.5,3.5,82,0.00,CLR,,0.24,WeatherDisplay:10.37,2013-01-02 19:54:00,
2013-01-02 14:59:00,43.9,39.1,30.07,ENE,60,3.5,3.5,83,0.00,CLR,,0.24,WeatherDisplay:10.37,2013-01-02 19:59:00,
2013-01-02 15:04:00,44.0,39.2,30.06,NNE,12,2.3,2.3,83,0.00,CLR,,0.24,WeatherDisplay:10.37,2013-01-02 20:04:00,
2013-01-02 15:09:00,43.9,39.1,30.06,NNW,347,1.1,1.1,83,0.00,CLR,,0.24,WeatherDisplay:10.37,2013-01-02 20:09:00,
2013-01-02 15:14:00,43.9,39.1,30.08,East,94,3.5,3.5,83,0.00,CLR,,0.24,WeatherDisplay:10.37,2013-01-02 20:14:00,
2013-01-02 15:19:00,43.9,39.1,30.08,ENE,68,1.1,1.1,83,0.00,CLR,,0.24,WeatherDisplay:10.37,2013-01-02 20:19:00,
2013-01-02 15:24:00,44.0,39.2,30.07,East,84,3.5,3.5,83,0.00,CLR,,0.24,WeatherDisplay:10.37,2013-01-02 20:24:00,
2013-01-02 15:29:00,44.1,39.0,30.07,NNE,18,3.0,3.0,82,0.00,CLR,,0.24,WeatherDisplay:10.37,2013-01-02 20:29:00,
2013-01-02 15:34:00,44.0,38.5,30.07,North,357,3.5,3.5,81,0.00,CLR,,0.24,WeatherDisplay:10.37,2013-01-02 20:34:00,
2013-01-02 15:39:00,43.8,38.3,30.09,North,356,2.3,2.3,81,0.00,CLR,,0.24,WeatherDisplay:10.37,2013-01-02 20:39:00,
2013-01-02 15:44:00,43.7,38.6,30.08,NNE,19,2.0,2.0,82,0.00,CLR,,0.24,WeatherDisplay:10.37,2013-01-02 20:44:00,
2013-01-02 15:49:00,43.6,38.8,30.09,NE,40,1.1,1.1,83,0.00,CLR,,0.24,WeatherDisplay:10.37,2013-01-02 20:49:00,
2013-01-02 15:54:00,43.7,38.9,30.09,NNE,32,1.1,1.1,83,0.00,CLR,,0.24,WeatherDisplay:10.37,2013-01-02 20:54:00,
2013-01-02 15:59:00,43.7,39.2,30.10,ENE,65,1.1,0.0,84,0.00,CLR,,0.24,WeatherDisplay:10.37,2013-01-02 20:59:00,
2013-01-02 16:04:00,43.6,38.8,30.09,East,81,1.1,1.1,83,0.00,CLR,,0.24,WeatherDisplay:10.37,2013-01-02 21:04:00,
2013-01-02 16:09:00,43.4,38.9,30.09,NE,48,1.1,1.1,84,0.00,CLR,,0.24,WeatherDisplay:10.37,2013-01-02 21:09:00,
2013-01-02 16:14:00,43.3,39.1,30.09,ESE,102,0.0,0.0,85,0.00,CLR,,0.24,WeatherDisplay:10.37,2013-01-02 21:14:00,
2013-01-02 16:19:00,43.3,39.1,30.09,NE,54,1.1,1.1,85,0.00,CLR,,0.24,WeatherDisplay:10.37,2013-01-02 21:19:00,
2013-01-02 16:24:00,43.1,38.6,30.10,NE,37,1.1,1.1,84,0.00,CLR,,0.24,WeatherDisplay:10.37,2013-01-02 21:24:00,
2013-01-02 16:29:00,43.0,38.5,30.11,NE,36,1.1,0.0,84,0.00,CLR,,0.24,WeatherDisplay:10.37,2013-01-02 21:29:00,
2013-01-02 16:34:00,42.9,38.4,30.10,ENE,67,0.0,0.0,84,0.00,CLR,,0.24,WeatherDisplay:10.37,2013-01-02 21:34:00,
2013-01-02 16:39:00,42.9,38.7,30.10,ENE,67,0.0,0.0,85,0.00,CLR,,0.24,WeatherDisplay:10.37,2013-01-02 21:39:00,
2013-01-02 16:44:00,42.8,38.3,30.10,ENE,68,0.0,0.0,84,0.00,CLR,,0.24,WeatherDisplay:10.37,2013-01-02 21:44:00,
2013-01-02 16:49:00,42.7,37.9,30.09,NE,45,2.3,2.3,83,0.00,CLR,,0.24,WeatherDisplay:10.37,2013-01-02 21:49:00,
2013-01-02 16:54:00,42.7,37.9,30.10,NE,43,0.0,0.0,83,0.00,CLR,,0.24,WeatherDisplay:10.37,2013-01-02 21:54:00,
2013-01-02 16:59:00,42.6,37.8,30.10,East,81,1.1,1.1,83,0.00,CLR,,0.24,WeatherDisplay:10.37,2013-01-02 21:59:00,
2013-01-02 17:05:00,42.5,38.0,30.10,East,80,0.0,0.0,84,0.00,CLR,,0.24,WeatherDisplay:10.37,2013-01-02 22:05:00,
2013-01-02 17:10:00,42.5,38.0,30.10,East,80,0.0,0.0,84,0.00,CLR,,0.24,WeatherDisplay:10.37,2013-01-02 22:10:00,
2013-01-02 17:15:00,42.4,37.9,30.11,NE,50,0.0,0.0,84,0.00,CLR,,0.24,WeatherDisplay:10.37,2013-01-02 22:15:00,
2013-01-02 17:20:00,42.4,37.9,30.11,ESE,107,0.0,0.0,84,0.00,CLR,,0.24,WeatherDisplay:10.37,2013-01-02 22:20:00,
2013-01-02 17:25:00,42.3,37.8,30.11,East,80,0.0,0.0,84,0.00,CLR,,0.24,WeatherDisplay:10.37,2013-01-02 22:25:00,
2013-01-02 17:30:00,42.2,38.0,30.11,East,81,0.0,0.0,85,0.00,CLR,,0.24,WeatherDisplay:10.37,2013-01-02 22:30:00,
2013-01-02 17:35:00,42.1,37.9,30.11,East,82,0.0,0.0,85,0.00,CLR,,0.24,WeatherDisplay:10.37,2013-01-02 22:35:00,
2013-01-02 17:40:00,42.1,38.2,30.11,East,97,0.0,0.0,86,0.00,CLR,,0.24,WeatherDisplay:10.37,2013-01-02 22:40:00,
2013-01-02 17:45:00,42.0,38.1,30.11,East,98,1.1,0.0,86,0.00,CLR,,0.24,WeatherDisplay:10.37,2013-01-02 22:45:00,
2013-01-02 17:50:00,41.9,38.0,30.12,East,98,1.1,0.0,86,0.00,CLR,,0.24,WeatherDisplay:10.37,2013-01-02 22:50:00,
2013-01-02 17:55:00,41.9,38.0,30.11,East,96,0.0,0.0,86,0.00,CLR,,0.24,WeatherDisplay:10.37,2013-01-02 22:55:00,
2013-01-02 18:00:00,41.8,38.2,30.11,SE,127,0.0,0.0,87,0.00,CLR,,0.24,WeatherDisplay:10.37,2013-01-02 23:00:00,
2013-01-02 18:05:00,41.8,38.2,30.11,East,84,1.1,0.0,87,0.00,CLR,,0.24,WeatherDisplay:10.37,2013-01-02 23:05:00,
2013-01-02 18:10:00,41.7,38.1,30.11,East,84,1.1,1.1,87,0.00,CLR,,0.24,WeatherDisplay:10.37,2013-01-02 23:10:00,
2013-01-02 18:15:00,41.7,38.1,30.12,East,84,0.0,0.0,87,0.00,CLR,,0.24,WeatherDisplay:10.37,2013-01-02 23:15:00,
2013-01-02 18:20:00,41.6,38.0,30.11,East,92,0.0,0.0,87,0.00,CLR,,0.24,WeatherDisplay:10.37,2013-01-02 23:20:00,
2013-01-02 18:25:00,41.6,38.0,30.12,ESE,122,0.0,0.0,87,0.00,CLR,,0.24,WeatherDisplay:10.37,2013-01-02 23:25:00,
2013-01-02 18:30:00,41.6,38.3,30.12,ENE,75,0.0,0.0,88,0.00,CLR,,0.24,WeatherDisplay:10.37,2013-01-02 23:30:00,
2013-01-02 18:35:00,41.5,38.2,30.13,ENE,75,0.0,0.0,88,0.00,CLR,,0.24,WeatherDisplay:10.37,2013-01-02 23:35:00,
2013-01-02 18:40:00,41.4,38.1,30.13,ENE,75,0.0,0.0,88,0.00,CLR,,0.24,WeatherDisplay:10.37,2013-01-02 23:40:00,
2013-01-02 18:45:00,41.3,38.0,30.13,ESE,116,0.0,0.0,88,0.00,CLR,,0.24,WeatherDisplay:10.37,2013-01-02 23:45:00,
2013-01-02 18:50:00,41.3,38.0,30.14,ESE,115,0.0,0.0,88,0.00,CLR,,0.24,WeatherDisplay:10.37,2013-01-02 23:50:00,
2013-01-02 18:55:00,41.2,38.2,30.14,ESE,114,0.0,0.0,89,0.00,CLR,,0.24,WeatherDisplay:10.37,2013-01-02 23:55:00,
2013-01-02 19:00:00,41.1,38.1,30.13,East,96,0.0,0.0,89,0.00,CLR,,0.24,WeatherDisplay:10.37,2013-01-03 00:00:00,
2013-01-02 19:05:00,41.0,38.0,30.13,East,96,0.0,0.0,89,0.00,CLR,,0.24,WeatherDisplay:10.37,2013-01-03 00:05:00,
2013-01-02 19:10:00,40.9,37.9,30.12,ENE,78,0.0,0.0,89,0.00,CLR,,0.24,WeatherDisplay:10.37,2013-01-03 00:10:00,
2013-01-02 19:15:00,40.8,37.8,30.13,ENE,75,0.0,0.0,89,0.00,CLR,,0.24,WeatherDisplay:10.37,2013-01-03 00:15:00,
2013-01-02 19:20:00,40.7,37.7,30.14,ENE,75,0.0,0.0,89,0.00,CLR,,0.24,WeatherDisplay:10.37,2013-01-03 00:20:00,
2013-01-02 19:25:00,40.6,37.6,30.15,ENE,75,0.0,0.0,89,0.00,CLR,,0.24,WeatherDisplay:10.37,2013-01-03 00:25:00,
2013-01-02 19:30:00,40.6,37.6,30.14,ENE,75,0.0,0.0,89,0.00,CLR,,0.24,WeatherDisplay:10.37,2013-01-03 00:30:00,
2013-01-02 19:35:00,40.7,37.7,30.14,ENE,75,0.0,0.0,89,0.00,CLR,,0.24,WeatherDisplay:10.37,2013-01-03 00:35:00,
2013-01-02 19:40:00,40.7,37.7,30.14,ENE,75,0.0,0.0,89,0.00,CLR,,0.24,WeatherDisplay:10.37,2013-01-03 00:40:00,
2013-01-02 19:45:00,40.6,37.6,30.15,ENE,75,0.0,0.0,89,0.00,CLR,,0.24,WeatherDisplay:10.37,2013-01-03 00:45:00,
2013-01-02 19:50:00,40.5,37.5,30.15,ENE,75,0.0,0.0,89,0.00,CLR,,0.24,WeatherDisplay:10.37,2013-01-03 00:50:00,
2013-01-02 19:55:00,40.5,37.5,30.15,ENE,75,0.0,0.0,89,0.00,CLR,,0.24,WeatherDisplay:10.37,2013-01-03 00:55:00,
2013-01-02 20:00:00,40.5,37.5,30.15,ENE,75,0.0,0.0,89,0.00,CLR,,0.24,WeatherDisplay:10.37,2013-01-03 01:00:00,
2013-01-02 20:05:00,40.4,37.7,30.15,ENE,75,0.0,0.0,90,0.00,CLR,,0.24,WeatherDisplay:10.37,2013-01-03 01:05:00,
2013-01-02 20:10:00,40.3,37.6,30.15,SE,124,0.0,0.0,90,0.00,CLR,,0.24,WeatherDisplay:10.37,2013-01-03 01:10:00,
2013-01-02 20:15:00,40.3,37.9,30.14,ESE,110,0.0,0.0,91,0.00,CLR,,0.24,WeatherDisplay:10.37,2013-01-03 01:15:00,
2013-01-02 20:20:00,40.2,37.5,30.15,ESE,110,0.0,0.0,90,0.00,CLR,,0.24,WeatherDisplay:10.37,2013-01-03 01:20:00,
2013-01-02 20:25:00,40.1,37.7,30.15,ESE,110,0.0,0.0,91,0.00,CLR,,0.24,WeatherDisplay:10.37,2013-01-03 01:25:00,
2013-01-02 20:30:00,40.1,37.7,30.14,ESE,110,0.0,0.0,91,0.00,CLR,,0.24,WeatherDisplay:10.37,2013-01-03 01:30:00,
2013-01-02 20:35:00,40.2,37.8,30.15,ESE,110,0.0,0.0,91,0.00,CLR,,0.24,WeatherDisplay:10.37,2013-01-03 01:35:00,
2013-01-02 20:40:00,40.3,37.9,30.14,East,96,1.1,1.1,91,0.00,CLR,,0.24,WeatherDisplay:10.37,2013-01-03 01:40:00,
2013-01-02 20:45:00,40.4,37.7,30.15,East,90,1.1,1.1,90,0.00,CLR,,0.24,WeatherDisplay:10.37,2013-01-03 01:45:00,
2013-01-02 20:50:00,40.4,37.7,30.15,ESE,108,1.0,0.0,90,0.00,CLR,,0.24,WeatherDisplay:10.37,2013-01-03 01:50:00,
2013-01-02 20:55:00,40.5,37.8,30.14,ESE,105,1.1,1.1,90,0.00,CLR,,0.24,WeatherDisplay:10.37,2013-01-03 01:55:00,
2013-01-02 21:00:00,40.5,38.1,30.15,ESE,113,1.1,1.1,91,0.00,CLR,,0.24,WeatherDisplay:10.37,2013-01-03 02:00:00,
2013-01-02 21:05:00,40.5,38.1,30.15,East,86,0.0,0.0,91,0.00,CLR,,0.24,WeatherDisplay:10.37,2013-01-03 02:05:00,
2013-01-02 21:10:00,40.5,38.1,30.15,ESE,111,0.0,0.0,91,0.00,CLR,,0.24,WeatherDisplay:10.37,2013-01-03 02:10:00,
2013-01-02 21:15:00,40.5,38.1,30.15,ESE,121,0.0,0.0,91,0.00,CLR,,0.24,WeatherDisplay:10.37,2013-01-03 02:15:00,
2013-01-02 21:20:00,40.5,38.1,30.15,NNW,347,0.0,0.0,91,0.00,CLR,,0.24,WeatherDisplay:10.37,2013-01-03 02:20:00,
2013-01-02 21:25:00,40.5,38.1,30.16,East,94,1.1,1.1,91,0.00,CLR,,0.24,WeatherDisplay:10.37,2013-01-03 02:25:00,
2013-01-02 21:30:00,40.4,38.0,30.17,ESE,111,1.1,1.1,91,0.00,CLR,,0.24,WeatherDisplay:10.37,2013-01-03 02:30:00,
2013-01-02 21:35:00,40.4,38.3,30.15,East,98,1.1,1.1,92,0.00,CLR,,0.24,WeatherDisplay:10.37,2013-01-03 02:35:00,
2013-01-02 21:40:00,40.4,38.3,30.16,North,7,1.1,0.0,92,0.00,CLR,,0.24,WeatherDisplay:10.37,2013-01-03 02:40:00,
2013-01-02 21:45:00,40.4,38.3,30.16,ESE,122,2.3,2.3,92,0.00,CLR,,0.24,WeatherDisplay:10.37,2013-01-03 02:45:00,
2013-01-02 21:50:00,40.4,38.3,30.16,ESE,103,1.1,1.1,92,0.00,CLR,,0.24,WeatherDisplay:10.37,2013-01-03 02:50:00,
2013-01-02 21:55:00,40.4,38.3,30.16,East,92,0.0,0.0,92,0.00,CLR,,0.24,WeatherDisplay:10.37,2013-01-03 02:55:00,
2013-01-02 22:00:00,40.4,38.3,30.17,East,92,0.0,0.0,92,0.00,CLR,,0.24,WeatherDisplay:10.37,2013-01-03 03:00:00,
2013-01-02 22:05:00,40.3,38.2,30.15,East,84,1.1,1.1,92,0.00,CLR,,0.24,WeatherDisplay:10.37,2013-01-03 03:05:00,
2013-01-02 22:10:00,40.3,38.4,30.15,ESE,109,1.1,1.1,93,0.00,CLR,,0.24,WeatherDisplay:10.37,2013-01-03 03:10:00,
2013-01-02 22:15:00,40.3,38.4,30.15,East,96,1.1,0.0,93,0.00,CLR,,0.24,WeatherDisplay:10.37,2013-01-03 03:15:00,
2013-01-02 22:20:00,40.3,38.4,30.16,East,96,0.0,0.0,93,0.00,CLR,,0.24,WeatherDisplay:10.37,2013-01-03 03:20:00,
2013-01-02 22:25:00,40.3,38.4,30.16,East,91,0.0,0.0,93,0.00,CLR,,0.24,WeatherDisplay:10.37,2013-01-03 03:25:00,
2013-01-02 22:30:00,40.3,38.4,30.16,East,88,0.0,0.0,93,0.00,CLR,,0.24,WeatherDisplay:10.37,2013-01-03 03:30:00,
2013-01-02 22:35:00,40.3,38.4,30.17,ESE,122,0.0,0.1,93,0.00,CLR,,0.24,WeatherDisplay:10.37,2013-01-03 03:35:00,
2013-01-02 22:40:00,40.3,38.4,30.17,ESE,118,0.0,0.0,93,0.00,CLR,,0.24,WeatherDisplay:10.37,2013-01-03 03:40:00,
2013-01-02 22:45:00,40.3,38.4,30.16,SE,129,0.0,0.0,93,0.00,CLR,,0.24,WeatherDisplay:10.37,2013-01-03 03:45:00,
2013-01-02 22:50:00,40.3,38.4,30.17,SE,128,1.1,0.0,93,0.00,CLR,,0.24,WeatherDisplay:10.37,2013-01-03 03:50:00,
2013-01-02 22:55:00,40.2,38.3,30.17,ESE,123,0.0,0.0,93,0.00,CLR,,0.24,WeatherDisplay:10.37,2013-01-03 03:55:00,
2013-01-02 23:00:00,40.2,38.3,30.17,ESE,123,0.0,0.0,93,0.00,CLR,,0.24,WeatherDisplay:10.37,2013-01-03 04:00:00,
2013-01-02 23:05:00,40.1,38.2,30.17,ESE,110,1.1,1.1,93,0.00,CLR,,0.24,WeatherDisplay:10.37,2013-01-03 04:05:00,
2013-01-02 23:10:00,40.1,38.2,30.17,East,91,0.0,0.0,93,0.00,CLR,,0.24,WeatherDisplay:10.37,2013-01-03 04:10:00,
2013-01-02 23:15:00,40.1,38.2,30.18,East,90,0.0,0.0,93,0.00,CLR,,0.24,WeatherDisplay:10.37,2013-01-03 04:15:00,
2013-01-02 23:20:00,40.1,38.2,30.17,East,90,0.0,0.0,93,0.00,CLR,,0.24,WeatherDisplay:10.37,2013-01-03 04:20:00,
2013-01-02 23:25:00,40.1,38.2,30.17,SE,140,1.1,0.0,93,0.00,CLR,,0.24,WeatherDisplay:10.37,2013-01-03 04:25:00,
2013-01-02 23:30:00,40.1,38.2,30.17,SE,140,0.0,0.0,93,0.00,CLR,,0.24,WeatherDisplay:10.37,2013-01-03 04:30:00,
2013-01-02 23:35:00,40.2,38.3,30.17,ESE,102,1.1,0.0,93,0.00,CLR,,0.24,WeatherDisplay:10.37,2013-01-03 04:35:00,
2013-01-02 23:40:00,40.2,38.3,30.17,SE,131,0.0,0.0,93,0.00,CLR,,0.24,WeatherDisplay:10.37,2013-01-03 04:40:00,
2013-01-02 23:45:00,40.2,38.3,30.17,SE,133,0.0,0.0,93,0.00,CLR,,0.24,WeatherDisplay:10.37,2013-01-03 04:45:00,
2013-01-02 23:50:00,40.2,38.3,30.17,SSW,204,1.1,0.0,93,0.00,CLR,,0.24,WeatherDisplay:10.37,2013-01-03 04:50:00,
2013-01-02 23:55:00,40.2,38.3,30.17,East,96,0.0,0.0,93,0.00,CLR,,0.24,WeatherDisplay:10.37,2013-01-03 04:55:00,